Location: Pedholt
(56.0260°N, 10.2097°E)
Time: 06:05:43
(UTC+00:00)

Cosmos 1238 Rocket - Pass Details

Date: 14 July 2020
Orbit: 374 x 1030 km, 82.9° (Epoch: 14 August)

Event Time Altitude Azimuth Distance (km) Brightness Sun altitude
Exits shadow 00:50:00 13° 212° (SSW) 2,113 5.2 -10.3°
Maximum altitude 00:54:28 49° 286° (WNW) 875 3.8 -10.1°
Drops below altitude 10° 00:58:39 10° 2° (N) 1,936 6.9 -9.9°
Sets 01:00:43 0° 8° (N) 2,742 8.2 -9.7°
